Midland, TX

9:38 AM CDT on September 26, 2016 (GMT -0500)
Midland

Weather History for KMDD - April, 2013

Change the Weather History Date:

Friday, April 19, 2013

  Actual Average (KMAF) Record (KMAF)
Temperature  
Mean Temperature 51 °F 65 °F  
Max Temperature 67 °F 80 °F 94 °F (2000)
Min Temperature 35 °F 50 °F 32 °F (2013)
Degree Days  
Heating Degree Days 14 3  
Month to date heating degree days 89  
Since 1 July heating degree days 2633  
Cooling Degree Days 0 3  
Month to date cooling degree days 42  
Year to date cooling degree days 60  
Growing Degree Days 1 (Base 50)    
Moisture  
Dew Point 14 °F    
Average Humidity 24    
Maximum Humidity 44    
Minimum Humidity 11    
Precipitation  
Precipitation 0.00 in 0.01 in 0.45 in (2014)
Month to date precipitation 0.40  
Year to date precipitation 2.27  
Snow  
Snow 0.00 in - - ()
Month to date snowfall  
Since 1 July snowfall  
Snow Depth -    
Sea Level Pressure  
Sea Level Pressure 30.22 in    
Wind  
Wind Speed 4 mph (South)    
Max Wind Speed 15 mph    
Max Gust Speed 20 mph    
Visibility 10 miles    
Events      
T = Trace of Precipitation, MM = Missing Value Source: NWS Daily Summary

Daily Weather History Graph

Daily Weather History Graph

Search for Another Location

Airport or City:

Trip Planner

Search our weather history database for the weather conditions in past years. The results will help you decide how hot, cold, wet, or windy it might be!

Date:

Astronomy

Apr. 19, 2013 Rise Set
Actual Time 7:14 AM CDT 8:20 PM CDT
Civil Twilight 6:49 AM CDT 8:46 PM CDT
Nautical Twilight 6:19 AM CDT 9:16 PM CDT
Astronomical Twilight 5:48 AM CDT 9:47 PM CDT
Moon 2:28 PM CDT (4/19) 3:09 AM CDT (4/19)
Length of Visible Light 13h 56m
Length of Day
13h 06m
First Quarter, 62% of the Moon is Illuminated
Apr 19
First Quarter
Apr 25
Full
May 2
Last Quarter
May 9
New
May 17
First Quarter

Hourly Weather History & Observations

Time (CDT) Temp. Windchill Dew Point Humidity Pressure Visibility Wind Dir Wind Speed Gust Speed Precip Events Conditions
12:15 AM 47.3 °F - 14.9 °F 27% 30.19 in 10.0 mi ENE 6.9 mph - N/A   Clear
12:35 AM 46.6 °F - 15.3 °F 29% 30.20 in 10.0 mi ENE 5.8 mph - N/A   Clear
12:55 AM 45.1 °F 43.7 °F 15.3 °F 30% 30.21 in 10.0 mi NE 3.5 mph - N/A   Clear
1:15 AM 44.6 °F - 15.6 °F 31% 30.21 in 10.0 mi Calm Calm - N/A   Clear
1:35 AM 44.8 °F - 15.6 °F 31% 30.21 in 10.0 mi Calm Calm - N/A   Clear
1:55 AM 44.6 °F - 15.6 °F 31% 30.22 in 10.0 mi Calm Calm - N/A   Clear
2:15 AM 43.9 °F - 14.9 °F 31% 30.22 in 10.0 mi Calm Calm - N/A   Clear
2:35 AM 43.3 °F - 14.9 °F 32% 30.23 in 10.0 mi Calm Calm - N/A   Clear
2:55 AM 42.8 °F 39.3 °F 14.9 °F 32% 30.23 in 10.0 mi NE 5.8 mph - N/A   Clear
3:15 AM 42.3 °F 38.6 °F 14.7 °F 33% 30.24 in 10.0 mi NNE 5.8 mph - N/A   Clear
3:35 AM 41.9 °F 39.0 °F 14.9 °F 34% 30.24 in 10.0 mi North 4.6 mph - N/A   Clear
3:55 AM 41.0 °F 39.0 °F 14.7 °F 34% 30.25 in 10.0 mi NNE 3.5 mph - N/A   Clear
4:15 AM 40.1 °F 38.0 °F 14.2 °F 35% 30.25 in 10.0 mi NNE 3.5 mph - N/A   Clear
4:35 AM 39.2 °F - 14.4 °F 36% 30.26 in 10.0 mi Calm Calm - N/A   Clear
4:55 AM 39.2 °F - 14.2 °F 36% 30.26 in 10.0 mi Calm Calm - N/A   Clear
5:15 AM 39.2 °F - 14.2 °F 36% 30.26 in 10.0 mi Calm Calm - N/A   Clear
5:35 AM 38.7 °F - 13.8 °F 36% 30.26 in 10.0 mi Calm Calm - N/A   Clear
5:55 AM 38.5 °F - 14.5 °F 38% 30.26 in 10.0 mi Calm Calm - N/A   Clear
6:15 AM 37.4 °F - 14.4 °F 39% 30.27 in 10.0 mi Calm Calm - N/A   Clear
6:35 AM 37.8 °F - 14.7 °F 39% 30.28 in 10.0 mi Calm Calm - N/A   Clear
6:55 AM 37.2 °F - 15.8 °F 42% 30.29 in 10.0 mi Calm Calm - N/A   Clear
7:15 AM 36.7 °F - 16.7 °F 44% 30.30 in 10.0 mi Calm Calm - N/A   Clear
7:35 AM 35.6 °F - 15.6 °F 44% 30.32 in 10.0 mi Calm Calm - N/A   Clear
7:55 AM 36.9 °F - 14.7 °F 40% 30.33 in 10.0 mi Calm Calm - N/A   Clear
8:15 AM 38.1 °F - 14.7 °F 39% 30.33 in 10.0 mi Calm Calm - N/A   Clear
8:35 AM 40.3 °F - 14.9 °F 36% 30.34 in 10.0 mi Calm Calm - N/A   Clear
8:55 AM 42.6 °F - 16.2 °F 34% 30.35 in 10.0 mi Calm Calm - N/A   Clear
9:15 AM 45.1 °F 42.8 °F 16.7 °F 32% 30.35 in 10.0 mi East 4.6 mph - N/A   Clear
9:35 AM 45.9 °F 43.6 °F 16.0 °F 30% 30.35 in 10.0 mi East 4.6 mph - N/A   Clear
9:55 AM 46.4 °F - 16.3 °F 30% 30.35 in 10.0 mi Calm Calm - N/A   Clear
10:15 AM 47.1 °F - 16.5 °F 29% 30.35 in 10.0 mi SSE 3.5 mph - N/A   Clear
10:35 AM 48.4 °F - 16.7 °F 28% 30.34 in 10.0 mi SE 5.8 mph - N/A   Clear
10:55 AM 49.8 °F - 16.5 °F 27% 30.34 in 10.0 mi ESE 5.8 mph - N/A   Clear
11:15 AM 50.4 °F - 16.5 °F 26% 30.34 in 10.0 mi SE 5.8 mph - N/A   Clear
11:35 AM 52.5 °F - 16.2 °F 24% 30.34 in 10.0 mi Calm Calm - N/A   Clear
11:55 AM 53.4 °F - 16.5 °F 23% 30.33 in 10.0 mi SSE 6.9 mph - N/A   Clear
12:15 PM 55.4 °F - 16.2 °F 21% 30.32 in 10.0 mi West 3.5 mph - N/A   Clear
12:35 PM 56.1 °F - 15.8 °F 21% 30.31 in 10.0 mi SW 9.2 mph - N/A   Clear
12:55 PM 57.7 °F - 15.6 °F 19% 30.29 in 10.0 mi West 6.9 mph - N/A   Clear
1:15 PM 58.5 °F - 16.0 °F 19% 30.28 in 10.0 mi SW 9.2 mph - N/A   Clear
1:35 PM 60.3 °F - 13.6 °F 16% 30.27 in 10.0 mi SW 3.5 mph - N/A   Clear
1:55 PM 61.0 °F - 12.0 °F 15% 30.26 in 10.0 mi West 3.5 mph - N/A   Clear
2:15 PM 62.1 °F - 11.8 °F 14% 30.25 in 10.0 mi South 8.1 mph - N/A   Clear
2:35 PM 63.7 °F - 11.3 °F 13% 30.23 in 10.0 mi SW 8.1 mph - N/A   Clear
2:55 PM 63.1 °F - 9.7 °F 12% 30.22 in 10.0 mi SSE 3.5 mph - N/A   Clear
3:15 PM 63.5 °F - 10.2 °F 12% 30.21 in 10.0 mi South 3.5 mph - N/A   Clear
3:35 PM 64.2 °F - 11.3 °F 13% 30.20 in 10.0 mi SW 6.9 mph - N/A   Clear
3:55 PM 64.4 °F - 10.4 °F 12% 30.19 in 10.0 mi Calm Calm - N/A   Clear
4:15 PM 65.7 °F - 10.0 °F 11% 30.18 in 10.0 mi South 5.8 mph - N/A   Clear
4:35 PM 65.7 °F - 10.6 °F 12% 30.16 in 10.0 mi WSW 8.1 mph - N/A   Clear
4:55 PM 66.7 °F - 11.1 °F 12% 30.15 in 10.0 mi SW 4.6 mph 17.3 mph N/A   Clear
5:15 PM 66.4 °F - 10.8 °F 11% 30.14 in 10.0 mi West 3.5 mph - N/A   Clear
5:35 PM 66.4 °F - 12.0 °F 12% 30.13 in 10.0 mi SSW 6.9 mph - N/A   Clear
5:55 PM 67.3 °F - 12.6 °F 12% 30.12 in 10.0 mi SSW 9.2 mph - N/A   Clear
6:15 PM 66.9 °F - 11.5 °F 12% 30.12 in 10.0 mi SW 3.5 mph - N/A   Clear
6:35 PM 66.7 °F - 11.7 °F 12% 30.12 in 10.0 mi South 10.4 mph 16.1 mph N/A   Clear
6:55 PM 66.7 °F - 10.8 °F 11% 30.12 in 10.0 mi SSW 9.2 mph 19.6 mph N/A   Clear
7:15 PM 66.2 °F - 11.8 °F 12% 30.11 in 10.0 mi SSW 6.9 mph 10.4 mph N/A   Clear
7:35 PM 65.8 °F - 11.8 °F 12% 30.10 in 10.0 mi South 8.1 mph - N/A   Clear
7:55 PM 65.3 °F - 11.3 °F 12% 30.09 in 10.0 mi SSW 8.1 mph - N/A   Clear
8:15 PM 64.0 °F - 12.0 °F 13% 30.10 in 10.0 mi South 8.1 mph - N/A   Clear
8:35 PM 62.2 °F - 12.0 °F 14% 30.10 in 10.0 mi South 5.8 mph - N/A   Clear
8:55 PM 60.8 °F - 12.2 °F 15% 30.10 in 10.0 mi South 4.6 mph - N/A   Clear
9:15 PM 60.3 °F - 12.4 °F 15% 30.10 in 10.0 mi South 5.8 mph - N/A   Clear
9:35 PM 58.6 °F - 12.0 °F 16% 30.10 in 10.0 mi South 5.8 mph - N/A   Clear
9:55 PM 58.3 °F - 12.0 °F 16% 30.11 in 10.0 mi South 5.8 mph - N/A   Clear
10:15 PM 58.6 °F - 11.5 °F 16% 30.11 in 10.0 mi South 6.9 mph - N/A   Clear
10:35 PM 59.0 °F - 11.8 °F 16% 30.11 in 10.0 mi South 9.2 mph - N/A   Clear
10:55 PM 58.3 °F - 11.7 °F 16% 30.11 in 10.0 mi South 10.4 mph - N/A   Clear
11:15 PM 57.6 °F - 12.9 °F 17% 30.10 in 10.0 mi South 11.5 mph - N/A   Clear
11:35 PM 57.2 °F - 13.1 °F 18% 30.10 in 10.0 mi South 15.0 mph - N/A   Clear
11:55 PM 56.3 °F - 13.8 °F 19% 30.09 in 10.0 mi South 11.5 mph - N/A   Clear